Regional Weather Roundup
Issued by NWS Mobile, AL

Home | Current Version | Previous Version | Text Only | Print | Product List | Glossary On
Versions: 1 2 3 4 5 6 7 8 9 10 11 12 13 14 15 16 17 18 19 20 21 22 23 24 25 26 27 28 29 30 31 32 33 34 35 36 37 38 39 40 41 42 43 44 45 46 47 48 49 50
000
ASUS44 KMOB 020616
RWRMOB
REGIONAL WEATHER ROUNDUP
NATIONAL WEATHER SERVICE MOBILE AL
100 AM CDT WED SEP 02 2015

ALZ061>064-020700-
COASTAL ALABAMA


CITY           SKY/WX    TMP DP  RH WIND       PRES   REMARKS
MOBILE REG APT FAIR      74  71  91 W3        30.07S
6HR MIN TEMP:  73; 6HR MAX TEMP:  83;

BROOKLEY FIELD FAIR      77  71  82 W5        30.07S
6HR MIN TEMP:  77; 6HR MAX TEMP:  85;

GULF SHORES    FAIR      73  73  99 CALM      30.05F
6HR MIN TEMP:  73; 6HR MAX TEMP:  83;


$$

ALZ051>060-020700-
INTERIOR SOUTHWEST AND SOUTH CENTRAL ALABAMA


CITY           SKY/WX    TMP DP  RH WIND       PRES   REMARKS
ANDALUSIA/OPP  FAIR      78  72  81 CALM      30.06S
6HR MIN TEMP:  78; 6HR MAX TEMP:  86;

EVERGREEN      FAIR      72  71  97 CALM      30.06F FOG
6HR MIN TEMP:  72; 6HR MAX TEMP:  81;

FLORALA        FAIR      75  70  84 NW3       30.08F
6HR MIN TEMP:  74; 6HR MAX TEMP:  83;

GREENVILLE     FAIR      73  70  90 CALM      30.06F
6HR MIN TEMP:  73; 6HR MAX TEMP:  87;


$$

FLZ001>006-020700-
WESTERN FLORIDA PANHANDLE


CITY           SKY/WX    TMP DP  RH WIND       PRES   REMARKS
CRESTVIEW      FAIR      73  71  93 CALM      30.07S
6HR MIN TEMP:  73; 6HR MAX TEMP:  87;

DESTIN         FAIR      80  73  79 CALM      30.05S
6HR MIN TEMP:  78; 6HR MAX TEMP:  87;

DUKE FIELD     FAIR      73  69  87 S2        30.05F
6HR MIN TEMP:  73; 6HR MAX TEMP:  87;

MARY ESTHER    FAIR      79  71  77 CALM      30.04S
6HR MIN TEMP:  78; 6HR MAX TEMP:  86;

MILTON         FAIR      77  72  84 W3        30.06R
6HR MIN TEMP:  76; 6HR MAX TEMP:  87;

PENSACOLA      FAIR      79  71  76 NW5       30.05S
6HR MIN TEMP:  79; 6HR MAX TEMP:  85;

NAS PENSACOLA  MOCLDY    75  72  90 NW3       30.05S
6HR MIN TEMP:  74; 6HR MAX TEMP:  83;

VALPARAISO     PTCLDY    78  71  80 W1        30.06S
6HR MIN TEMP:  77; 6HR MAX TEMP:  86;


$$

...MARINE OBSERVATIONS...

STATION/POSITION TIME  SKY/WX   TEMP    WIND        PRES    VSBY
                                AIR SEA DIR/SP/G
                 (UTC)          (F)     (DEG/KT/KT) (MB)    (MI)
PASCAGOULA       0500            81     310/  3/  3 1017.8S
GRAND BAY        0445            79     350/  2     1019.0
PETIT BOIS ISL   0500            84     260/  6/  8 1018.5R
E DAUPHIN ISLAND 0600            83     270/  5/  6 1017.6F
MIDDLE BAY LIGHT 0500                   280/  8     1017.6R
USCG MOBILE BAY  0500            80 85  280/  3/  4 1016.8S
STATE DOCKS      0500            81 85              1017.5S
MEAHER PARK      0600            80      40/  2     1017.3S
FORT MORGAN      0500            83     310/  7/  8 1017.4R
12 S ORANGE BCH  0550            85 85  270/  6/  8 1017.2R
WVE H/P(F/S)=  1/ 5

PENSACOLA BAY    0500            82 86  320/  4/  6 1017.8F
64 S DAUPHIN ISL 0550            83 86  180/  2/  4 1018.1R
WVE H/P(F/S)=  1/ 5

115 SE PENSACOLA 0550            82 86   60/  2/  2 1017.7F
WVE H/P(F/S)=  2/ 5

MID GULF/42001   0600            84 85  140/ 12/ 14 1016.8F
EAST GULF/42003  0550            84 86  140/  8/  8 1017.6S
WVE H/P(F/S)=  2/ 5


$$

...NEARBY LOCATIONS

CITY           SKY/WX    TMP DP  RH WIND       PRES   REMARKS
GULFPORT       FAIR      77  72  84 CALM      30.06S
6HR MIN TEMP:  76; 6HR MAX TEMP:  84;

BILOXI         MOCLDY    79  75  87 NW1       30.05F
6HR MIN TEMP:  78; 6HR MAX TEMP:  83;

PASCAGOULA     FAIR      71  70  96 CALM      30.06S
6HR MIN TEMP:  71; 6HR MAX TEMP:  82;

HATTIESBURG    MOCLDY    79  68  69 CALM      30.08R
6HR MIN TEMP:  76; 6HR MAX TEMP:  90;

LAUREL         FAIR      73  64  73 CALM      30.09S
6HR MIN TEMP:  73; 6HR MAX TEMP:  88;

MERIDIAN       CLOUDY    75  71  87 CALM      30.07R
6HR MIN TEMP:  73; 6HR MAX TEMP:  85;

MERIDIAN NAS   FAIR      74  70  87 CALM      30.07R
6HR MIN TEMP:  73; 6HR MAX TEMP:  86;

MONTGOMERY     FAIR      77  71  82 CALM      30.06F
6HR MIN TEMP:  75; 6HR MAX TEMP:  87;

MAXWELL AFB    FAIR      76  73  92 N1        30.06S
6HR MIN TEMP:  75; 6HR MAX TEMP:  89;

TROY           FAIR      74  71  91 CALM      30.08F
6HR MIN TEMP:  72; 6HR MAX TEMP:  83;

FORT RUCKER    FAIR      74  70  87 CALM      30.06S
6HR MIN TEMP:  73; 6HR MAX TEMP:  83;

DALEVILLE      CLEAR     77  71  82 SE2       30.06F
6HR MIN TEMP:  76; 6HR MAX TEMP:  85;

DOTHAN         FAIR      75  72  90 CALM      30.10F
6HR MIN TEMP:  74; 6HR MAX TEMP:  85;


$$

...OTHER SURROUNDING LOCATIONS...

CITY           SKY/WX    TMP DP  RH WIND       PRES   REMARKS
BIRMINGHAM     FAIR      74  71  91 CALM      30.11R
6HR MIN TEMP:  73; 6HR MAX TEMP:  84;

TUSCALOOSA     FAIR      74  71  91 CALM      30.07S
6HR MIN TEMP:  73; 6HR MAX TEMP:  85;

COLUMBUS GA    FAIR      76  71  85 CALM      30.08F
6HR MIN TEMP:  75; 6HR MAX TEMP:  85;

PANAMA CITY    NOT AVBL
TALLAHASSEE    FAIR      78  75  90 CALM      30.04F
6HR MIN TEMP:  78; 6HR MAX TEMP:  82;

BATON ROUGE    FAIR      78  72  81 W3        30.07S
6HR MIN TEMP:  78; 6HR MAX TEMP:  86;

NEW ORLEANS    CLOUDY    80  72  76 CALM      30.06F
6HR MIN TEMP:  80; 6HR MAX TEMP:  86;

SLIDELL        FAIR      75  74  96 CALM      30.06S
6HR MIN TEMP:  75; 6HR MAX TEMP:  84;

JACKSON        FAIR      74  71  91 S3        30.06S
6HR MIN TEMP:  73; 6HR MAX TEMP:  78; 6HR PCP:  0.25;

MCCOMB         FAIR      76  69  79 CALM      30.07F
6HR MIN TEMP:  73; 6HR MAX TEMP:  87;


$$

...SURROUNDING MARINE OBSERVATIONS...

STATION/POSITION TIME  SKY/WX   TEMP    WIND        PRES    VSBY
                                AIR SEA DIR/SP/G
                 (UTC)          (F)     (DEG/KT/KT) (MB)    (MI)
WAVELAND         0500            79 85  270/  3/  4 1018.5R
PASCAGOULA RGN A 0500            80     290/  4/  5 1017.5S
PASCAGOULA PORT  0500               86                N/A
GRAND ISLE       0500            84 87  180/  2/  3 1018.1F
SOUTHWEST PASS   0600                                 N/A
PILOT STATION E  0500            84 86  140/  5/  6 1018.2F
SHELL BEACH      0500            82 87  180/  3/  3 1017.6R
PANAMA CITY      0500            81 87   20/  3/  4 1017.5R
APALACHICOLA     0500            76 86  360/  3/  6 1017.6F
TYNDALL TOWER C  0600            80      CALM  /  1 1016.9F
S APLCHCLA/42036 0550            82 85  200/  4/  4 1017.2F
WVE H/P(F/S)=  2/ 5


$$



USA.gov is the U.S. government's official web portal to all federal, state and local government web resources and services.